Private Wetterstation Wechselburg
Wetterdaten: Dienstag, 31.05.2011
Datum Zeit Temp. +2m Bodentemp. Temp.+5cm Temp. Wind Windchill X Diff Temp. Feuchte +2m Feuchte +5cm Sonnenschein Luftdruck Regen Wind Richtung Richtung Sonnenschein UV Taupunkt Windchill Windben
31.05.2011 00:00 21,9 C 21,2 C 20,1 C 21,1 C 19,6 C 0,0 C 54 % 62 % 0 % 1011,9 hPa 0,0 l/m 1,0 km/h (0 Bft) NO 45 0 min 0,0 UV-I 12,2 C 19,6 C 0,0 km/h (0 Bft)
31.05.2011 00:10 21,9 C 21,1 C 20,0 C 21,1 C 19,5 C 0,0 C 54 % 62 % 0 % 1011,8 hPa 0,0 l/m 0,5 km/h (0 Bft) N 0 0 min 0,0 UV-I 12,2 C 19,5 C 2,4 km/h (1 Bft)
31.05.2011 00:15 21,9 C 21,1 C 20,1 C 21,1 C 19,5 C 0,0 C 54 % 62 % 0 % 1011,8 hPa 0,0 l/m 0,6 km/h (0 Bft) NW 315 0 min 0,0 UV-I 12,2 C 19,5 C 0,0 km/h (0 Bft)
31.05.2011 00:20 21,9 C 21,1 C 20,0 C 21,1 C 19,5 C 0,0 C 54 % 62 % 0 % 1011,8 hPa 0,0 l/m 0,6 km/h (0 Bft) W 270 0 min 0,0 UV-I 12,2 C 19,5 C 3,4 km/h (1 Bft)
31.05.2011 00:25 21,8 C 21,1 C 20,0 C 21,0 C 19,4 C 0,0 C 55 % 62 % 0 % 1011,8 hPa 0,0 l/m 0,5 km/h (0 Bft) N 360 0 min 0,0 UV-I 12,4 C 19,4 C 2,9 km/h (1 Bft)
31.05.2011 00:30 21,9 C 21,1 C 20,1 C 21,1 C 19,5 C 0,0 C 55 % 62 % 0 % 1011,9 hPa 0,0 l/m 0,8 km/h (0 Bft) SW 225 0 min 0,0 UV-I 12,4 C 19,5 C 4,8 km/h (1 Bft)
31.05.2011 00:35 21,9 C 21,1 C 20,0 C 21,1 C 19,5 C 0,0 C 55 % 63 % 0 % 1011,9 hPa 0,0 l/m 1,3 km/h (1 Bft) S 180 0 min 0,0 UV-I 12,4 C 19,5 C 2,4 km/h (1 Bft)
31.05.2011 00:40 21,7 C 21,1 C 19,9 C 20,9 C 19,3 C 0,0 C 56 % 64 % 0 % 1011,9 hPa 0,0 l/m 0,8 km/h (0 Bft) S-SW 202 0 min 0,0 UV-I 12,5 C 19,3 C 2,4 km/h (1 Bft)
31.05.2011 00:45 21,7 C 21,1 C 19,8 C 20,9 C 19,3 C 0,0 C 55 % 63 % 0 % 1011,9 hPa 0,0 l/m 0,8 km/h (0 Bft) O-NO 67 0 min 0,0 UV-I 12,3 C 19,3 C 0,0 km/h (0 Bft)
31.05.2011 00:50 21,6 C 21,1 C 19,7 C 20,8 C 19,1 C 0,0 C 56 % 64 % 0 % 1012,0 hPa 0,0 l/m 1,0 km/h (0 Bft) O-NO 67 0 min 0,0 UV-I 12,4 C 19,1 C 5,1 km/h (1 Bft)
31.05.2011 00:55 21,5 C 21,1 C 19,7 C 20,7 C 19,1 C 0,0 C 56 % 64 % 0 % 1012,0 hPa 0,0 l/m 0,8 km/h (0 Bft) SO 135 0 min 0,0 UV-I 12,3 C 19,1 C 3,5 km/h (1 Bft)
31.05.2011 01:00 21,5 C 21,1 C 19,7 C 20,7 C 19,0 C 0,0 C 56 % 64 % 0 % 1012,0 hPa 0,0 l/m 1,0 km/h (0 Bft) O-SO 112 0 min 0,0 UV-I 12,3 C 19,0 C 2,6 km/h (1 Bft)
31.05.2011 01:10 21,5 C 21,1 C 19,7 C 20,7 C 19,1 C 0,0 C 57 % 64 % 0 % 1011,8 hPa 0,0 l/m 1,8 km/h (1 Bft) N 0 0 min 0,0 UV-I 12,6 C 19,1 C 6,0 km/h (2 Bft)
31.05.2011 01:15 21,5 C 21,1 C 19,6 C 20,7 C 19,0 C 0,0 C 57 % 64 % 0 % 1011,8 hPa 0,0 l/m 1,3 km/h (1 Bft) W-SW 247 0 min 0,0 UV-I 12,6 C 19,0 C 2,1 km/h (1 Bft)
31.05.2011 01:20 21,3 C 21,1 C 19,5 C 20,5 C 18,8 C 0,0 C 57 % 64 % 0 % 1011,8 hPa 0,0 l/m 0,2 km/h (0 Bft) NO 45 0 min 0,0 UV-I 12,4 C 18,8 C 0,0 km/h (0 Bft)
31.05.2011 01:25 21,2 C 21,1 C 19,5 C 20,3 C 18,6 C 0,0 C 58 % 65 % 0 % 1011,8 hPa 0,0 l/m 0,2 km/h (0 Bft) S-SW 202 0 min 0,0 UV-I 12,6 C 18,6 C 0,0 km/h (0 Bft)
31.05.2011 01:30 21,2 C 21,1 C 19,5 C 20,2 C 18,3 C 0,0 C 58 % 65 % 0 % 1011,6 hPa 0,0 l/m 0,0 km/h (0 Bft) N 360 0 min 0,0 UV-I 12,6 C 18,3 C 0,0 km/h (0 Bft)
31.05.2011 01:35 21,2 C 21,1 C 19,3 C 20,2 C 18,2 C 0,0 C 58 % 65 % 0 % 1011,6 hPa 0,0 l/m 0,0 km/h (0 Bft) SW 225 0 min 0,0 UV-I 12,6 C 18,2 C 0,0 km/h (0 Bft)
31.05.2011 01:40 21,1 C 21,1 C 19,2 C 20,1 C 18,1 C 0,0 C 59 % 65 % 0 % 1011,6 hPa 0,0 l/m 0,0 km/h (0 Bft) S 180 0 min 0,0 UV-I 12,8 C 18,1 C 0,0 km/h (0 Bft)
31.05.2011 01:45 21,1 C 21,1 C 19,3 C 20,1 C 18,1 C 0,0 C 59 % 65 % 0 % 1011,6 hPa 0,0 l/m 0,0 km/h (0 Bft) SO 135 0 min 0,0 UV-I 12,8 C 18,1 C 0,0 km/h (0 Bft)
31.05.2011 01:50 21,0 C 21,0 C 19,2 C 20,0 C 18,0 C 0,0 C 59 % 66 % 0 % 1011,6 hPa 0,0 l/m 0,0 km/h (0 Bft) SW 225 0 min 0,0 UV-I 12,7 C 18,0 C 0,0 km/h (0 Bft)
31.05.2011 01:55 20,9 C 21,0 C 19,1 C 19,9 C 17,9 C 0,0 C 59 % 66 % 0 % 1011,6 hPa 0,0 l/m 0,0 km/h (0 Bft) SO 135 0 min 0,0 UV-I 12,6 C 17,9 C 0,0 km/h (0 Bft)
31.05.2011 02:00 20,9 C 21,0 C 19,0 C 19,9 C 17,9 C 0,0 C 59 % 66 % 0 % 1011,6 hPa 0,0 l/m 0,0 km/h (0 Bft) N-NW 337 0 min 0,0 UV-I 12,6 C 17,9 C 2,3 km/h (1 Bft)
31.05.2011 02:08 20,8 C 21,0 C 18,9 C 19,8 C 17,8 C 0,0 C 59 % 67 % 0 % 1011,4 hPa 0,0 l/m 0,2 km/h (0 Bft) N 0 0 min 0,0 UV-I 12,5 C 17,8 C 0,0 km/h (0 Bft)
31.05.2011 02:15 20,7 C 21,0 C 18,9 C 19,7 C 17,8 C 0,0 C 60 % 68 % 0 % 1011,4 hPa 0,0 l/m 0,3 km/h (0 Bft) SO 135 0 min 0,0 UV-I 12,7 C 17,8 C 4,2 km/h (1 Bft)
31.05.2011 02:20 20,7 C 21,0 C 18,8 C 19,7 C 17,8 C 0,0 C 60 % 68 % 0 % 1011,4 hPa 0,0 l/m 0,6 km/h (0 Bft) S 180 0 min 0,0 UV-I 12,7 C 17,8 C 0,0 km/h (0 Bft)
31.05.2011 02:25 20,6 C 21,0 C 18,8 C 19,6 C 17,7 C 0,0 C 60 % 68 % 0 % 1011,4 hPa 0,0 l/m 1,0 km/h (0 Bft) S 180 0 min 0,0 UV-I 12,6 C 17,7 C 3,1 km/h (1 Bft)
31.05.2011 02:30 20,6 C 21,0 C 18,7 C 19,6 C 17,6 C 0,0 C 61 % 69 % 0 % 1011,6 hPa 0,0 l/m 0,5 km/h (0 Bft) S-SO 157 0 min 0,0 UV-I 12,8 C 17,6 C 0,0 km/h (0 Bft)
31.05.2011 02:35 20,4 C 20,9 C 18,7 C 19,4 C 17,5 C 0,0 C 61 % 68 % 0 % 1011,6 hPa 0,0 l/m 0,3 km/h (0 Bft) NW 315 0 min 0,0 UV-I 12,6 C 17,5 C 0,0 km/h (0 Bft)
31.05.2011 02:40 20,3 C 20,9 C 18,4 C 19,3 C 17,2 C 0,0 C 61 % 69 % 0 % 1011,6 hPa 0,0 l/m 0,0 km/h (0 Bft) N-NO 22 0 min 0,0 UV-I 12,5 C 17,2 C 0,0 km/h (0 Bft)
31.05.2011 02:45 20,2 C 20,9 C 18,4 C 19,2 C 17,1 C 0,0 C 62 % 69 % 0 % 1011,6 hPa 0,0 l/m 0,0 km/h (0 Bft) N-NO 22 0 min 0,0 UV-I 12,7 C 17,1 C 0,0 km/h (0 Bft)
31.05.2011 02:50 20,1 C 20,9 C 18,2 C 19,0 C 16,9 C 0,0 C 63 % 70 % 0 % 1011,2 hPa 0,0 l/m 0,0 km/h (0 Bft) N-NO 22 0 min 0,0 UV-I 12,8 C 16,9 C 0,0 km/h (0 Bft)
31.05.2011 02:55 20,0 C 20,9 C 18,3 C 18,9 C 16,8 C 0,0 C 63 % 70 % 0 % 1011,2 hPa 0,0 l/m 0,0 km/h (0 Bft) N-NO 22 0 min 0,0 UV-I 12,7 C 16,8 C 0,0 km/h (0 Bft)
31.05.2011 03:00 20,1 C 20,9 C 18,1 C 18,9 C 16,6 C 0,0 C 63 % 70 % 0 % 1011,2 hPa 0,0 l/m 0,0 km/h (0 Bft) S-SO 157 0 min 0,0 UV-I 12,8 C 16,6 C 0,0 km/h (0 Bft)
31.05.2011 03:10 19,8 C 20,9 C 18,0 C 18,7 C 16,5 C 0,0 C 63 % 70 % 0 % 1011,4 hPa 0,0 l/m 0,0 km/h (0 Bft) N 0 0 min 0,0 UV-I 12,5 C 16,5 C 0,0 km/h (0 Bft)
31.05.2011 03:15 19,9 C 20,9 C 17,9 C 18,7 C 16,4 C 0,0 C 64 % 71 % 0 % 1011,4 hPa 0,0 l/m 0,0 km/h (0 Bft) S-SO 157 0 min 0,0 UV-I 12,9 C 16,4 C 0,0 km/h (0 Bft)
31.05.2011 03:20 19,7 C 20,8 C 17,9 C 18,6 C 16,3 C 0,0 C 64 % 72 % 0 % 1011,4 hPa 0,0 l/m 0,0 km/h (0 Bft) SW 225 0 min 0,0 UV-I 12,7 C 16,3 C 0,0 km/h (0 Bft)
31.05.2011 03:25 19,7 C 20,8 C 17,6 C 18,6 C 16,3 C 0,0 C 64 % 72 % 0 % 1011,4 hPa 0,0 l/m 0,2 km/h (0 Bft) SO 135 0 min 0,0 UV-I 12,7 C 16,3 C 0,0 km/h (0 Bft)
31.05.2011 03:30 19,5 C 20,8 C 17,5 C 18,4 C 16,3 C 0,0 C 64 % 72 % 0 % 1011,3 hPa 0,0 l/m 0,0 km/h (0 Bft) O-NO 67 0 min 0,0 UV-I 12,5 C 16,3 C 0,0 km/h (0 Bft)
31.05.2011 03:35 19,5 C 20,8 C 17,4 C 18,4 C 16,3 C 0,0 C 64 % 72 % 0 % 1011,3 hPa 0,0 l/m 0,0 km/h (0 Bft) O-NO 67 0 min 0,0 UV-I 12,5 C 16,3 C 0,0 km/h (0 Bft)
31.05.2011 03:40 19,1 C 20,8 C 17,3 C 18,2 C 16,3 C 0,0 C 65 % 73 % 0 % 1011,3 hPa 0,0 l/m 0,3 km/h (0 Bft) NO 45 0 min 0,0 UV-I 12,4 C 16,3 C 1,8 km/h (1 Bft)
31.05.2011 03:45 19,1 C 20,9 C 17,2 C 18,2 C 16,3 C 0,0 C 66 % 73 % 0 % 1011,3 hPa 0,0 l/m 0,6 km/h (0 Bft) NO 45 0 min 0,0 UV-I 12,6 C 16,3 C 0,0 km/h (0 Bft)
31.05.2011 03:50 18,7 C 20,9 C 17,1 C 17,9 C 16,2 C 0,0 C 67 % 74 % 0 % 1011,2 hPa 0,0 l/m 1,1 km/h (1 Bft) O-NO 67 0 min 0,0 UV-I 12,4 C 16,2 C 1,6 km/h (1 Bft)
31.05.2011 03:55 18,5 C 20,9 C 16,9 C 17,7 C 16,0 C 0,0 C 67 % 74 % 0 % 1011,2 hPa 0,0 l/m 0,6 km/h (0 Bft) NO 45 0 min 0,0 UV-I 12,3 C 16,0 C 0,0 km/h (0 Bft)
31.05.2011 04:00 18,5 C 20,8 C 16,8 C 17,6 C 15,7 C 0,0 C 68 % 75 % 0 % 1011,2 hPa 0,0 l/m 0,0 km/h (0 Bft) NO 45 0 min 0,0 UV-I 12,5 C 15,7 C 0,0 km/h (0 Bft)
31.05.2011 04:10 18,5 C 20,8 C 16,4 C 17,3 C 15,0 C 0,0 C 68 % 76 % 0 % 1010,9 hPa 0,0 l/m 0,0 km/h (0 Bft) N 0 0 min 0,0 UV-I 12,5 C 15,0 C 0,0 km/h (0 Bft)
31.05.2011 04:15 18,4 C 20,8 C 16,4 C 17,1 C 14,6 C 0,0 C 68 % 76 % 0 % 1010,9 hPa 0,0 l/m 0,0 km/h (0 Bft) W 270 0 min 0,0 UV-I 12,4 C 14,6 C 0,0 km/h (0 Bft)
31.05.2011 04:20 18,3 C 20,8 C 16,2 C 17,0 C 14,3 C 0,0 C 69 % 77 % 0 % 1010,9 hPa 0,0 l/m 0,0 km/h (0 Bft) W 270 0 min 0,0 UV-I 12,5 C 14,3 C 0,0 km/h (0 Bft)
31.05.2011 04:25 18,1 C 20,8 C 16,2 C 16,8 C 14,3 C 0,0 C 69 % 77 % 0 % 1010,9 hPa 0,0 l/m 0,0 km/h (0 Bft) W 270 0 min 0,0 UV-I 12,3 C 14,3 C 0,0 km/h (0 Bft)
31.05.2011 04:30 18,1 C 20,8 C 16,0 C 16,8 C 14,3 C 0,0 C 69 % 77 % 0 % 1010,9 hPa 0,0 l/m 0,0 km/h (0 Bft) W-NW 292 0 min 0,0 UV-I 12,3 C 14,3 C 0,0 km/h (0 Bft)
31.05.2011 04:35 18,1 C 20,8 C 16,0 C 16,8 C 14,3 C 0,0 C 69 % 77 % 0 % 1010,9 hPa 0,0 l/m 0,0 km/h (0 Bft) W-NW 292 0 min 0,0 UV-I 12,3 C 14,3 C 0,0 km/h (0 Bft)
31.05.2011 04:40 18,1 C 20,7 C 16,0 C 16,8 C 14,3 C 0,0 C 69 % 77 % 0 % 1010,9 hPa 0,0 l/m 0,0 km/h (0 Bft) W-NW 292 0 min 0,0 UV-I 12,3 C 14,3 C 0,0 km/h (0 Bft)
31.05.2011 04:45 18,1 C 20,7 C 16,0 C 16,9 C 14,4 C 0,0 C 70 % 77 % 0 % 1010,9 hPa 0,0 l/m 0,0 km/h (0 Bft) W 270 0 min 0,0 UV-I 12,5 C 14,4 C 0,0 km/h (0 Bft)
31.05.2011 04:50 18,3 C 20,7 C 16,0 C 17,0 C 14,4 C 0,0 C 70 % 77 % 0 % 1010,9 hPa 0,0 l/m 0,0 km/h (0 Bft) W-NW 292 0 min 0,0 UV-I 12,7 C 14,4 C 0,0 km/h (0 Bft)
31.05.2011 04:55 18,1 C 20,7 C 16,0 C 16,9 C 14,4 C 0,0 C 70 % 77 % 0 % 1010,9 hPa 0,0 l/m 0,0 km/h (0 Bft) W-NW 292 0 min 0,0 UV-I 12,5 C 14,4 C 0,0 km/h (0 Bft)
31.05.2011 05:00 18,1 C 20,7 C 15,9 C 16,9 C 14,4 C 0,0 C 70 % 77 % 0 % 1010,9 hPa 0,0 l/m 0,0 km/h (0 Bft) W-NW 292 0 min 0,0 UV-I 12,5 C 14,4 C 0,0 km/h (0 Bft)
31.05.2011 05:08 17,9 C 20,7 C 15,9 C 16,6 C 14,1 C 0,0 C 70 % 79 % 0 % 1011,1 hPa 0,0 l/m 0,0 km/h (0 Bft) N 0 0 min 0,0 UV-I 12,3 C 14,1 C 0,0 km/h (0 Bft)
31.05.2011 05:15 17,7 C 20,7 C 15,6 C 16,5 C 14,1 C 0,0 C 70 % 78 % 0 % 1011,1 hPa 0,0 l/m 0,0 km/h (0 Bft) W-NW 292 0 min 0,0 UV-I 12,2 C 14,1 C 0,0 km/h (0 Bft)
31.05.2011 05:20 17,6 C 20,7 C 15,5 C 16,4 C 14,0 C 0,0 C 71 % 79 % 0 % 1011,1 hPa 0,0 l/m 0,0 km/h (0 Bft) W-NW 292 0 min 0,0 UV-I 12,3 C 14,0 C 0,0 km/h (0 Bft)
31.05.2011 05:25 17,6 C 20,7 C 15,4 C 16,4 C 14,0 C 0,0 C 71 % 79 % 0 % 1011,1 hPa 0,0 l/m 0,0 km/h (0 Bft) W-NW 292 0 min 0,0 UV-I 12,3 C 14,0 C 0,0 km/h (0 Bft)
31.05.2011 05:30 17,5 C 20,6 C 15,3 C 16,3 C 13,8 C 0,0 C 72 % 80 % 0 % 1010,8 hPa 0,0 l/m 0,0 km/h (0 Bft) W-NW 292 0 min 0,0 UV-I 12,4 C 13,8 C 0,0 km/h (0 Bft)
31.05.2011 05:35 17,5 C 20,6 C 15,3 C 16,3 C 13,8 C 0,0 C 72 % 80 % 0 % 1010,8 hPa 0,0 l/m 0,0 km/h (0 Bft) W-NW 292 0 min 0,0 UV-I 12,4 C 13,8 C 0,0 km/h (0 Bft)
31.05.2011 05:40 17,5 C 20,6 C 15,2 C 16,3 C 13,8 C 0,0 C 71 % 80 % 0 % 1010,8 hPa 0,0 l/m 0,0 km/h (0 Bft) W-NW 292 0 min 0,0 UV-I 12,2 C 13,8 C 0,0 km/h (0 Bft)
31.05.2011 05:45 17,3 C 20,6 C 15,1 C 16,1 C 13,8 C 0,0 C 72 % 80 % 0 % 1010,8 hPa 0,0 l/m 0,0 km/h (0 Bft) W-NW 292 0 min 0,0 UV-I 12,2 C 13,8 C 0,0 km/h (0 Bft)
31.05.2011 05:50 17,3 C 20,6 C 15,1 C 16,1 C 13,8 C 0,0 C 73 % 81 % 0 % 1011,0 hPa 0,0 l/m 0,0 km/h (0 Bft) W-NW 292 0 min 0,0 UV-I 12,4 C 13,8 C 0,0 km/h (0 Bft)
31.05.2011 05:55 17,4 C 20,5 C 15,2 C 16,3 C 14,0 C 0,0 C 73 % 81 % 0 % 1011,0 hPa 0,0 l/m 0,0 km/h (0 Bft) W-SW 247 0 min 0,0 UV-I 12,5 C 14,0 C 0,0 km/h (0 Bft)
31.05.2011 06:00 17,5 C 20,5 C 15,2 C 16,4 C 14,2 C 0,0 C 72 % 81 % 0 % 1011,0 hPa 0,0 l/m 0,0 km/h (0 Bft) W-SW 247 0 min 0,0 UV-I 12,4 C 14,2 C 0,0 km/h (0 Bft)
31.05.2011 06:08 17,6 C 20,5 C 15,5 C 16,6 C 14,6 C 0,0 C 72 % 81 % 0 % 1011,1 hPa 0,0 l/m 0,0 km/h (0 Bft) N 0 0 min 0,0 UV-I 12,5 C 14,6 C 0,0 km/h (0 Bft)
31.05.2011 06:15 17,9 C 20,5 C 15,4 C 16,9 C 14,8 C 0,0 C 72 % 81 % 0 % 1011,1 hPa 0,0 l/m 0,2 km/h (0 Bft) W-SW 247 0 min 0,0 UV-I 12,8 C 14,8 C 2,3 km/h (1 Bft)
31.05.2011 06:20 18,0 C 20,5 C 15,5 C 17,0 C 15,1 C 0,0 C 71 % 81 % 0 % 1011,1 hPa 0,0 l/m 0,3 km/h (0 Bft) W-NW 292 0 min 0,0 UV-I 12,7 C 15,1 C 0,0 km/h (0 Bft)
31.05.2011 06:25 18,9 C 20,5 C 15,6 C 17,7 C 15,3 C 0,0 C 69 % 81 % 0 % 1011,1 hPa 0,0 l/m 0,5 km/h (0 Bft) W-SW 247 0 min 0,0 UV-I 13,1 C 15,3 C 2,4 km/h (1 Bft)
31.05.2011 06:30 18,7 C 20,5 C 15,9 C 17,7 C 15,6 C 0,0 C 69 % 81 % 0 % 1011,2 hPa 0,0 l/m 0,3 km/h (0 Bft) W-NW 292 0 min 0,0 UV-I 12,9 C 15,6 C 0,0 km/h (0 Bft)
31.05.2011 06:35 18,8 C 20,5 C 16,0 C 17,8 C 15,7 C 0,0 C 69 % 81 % 0 % 1011,2 hPa 0,0 l/m 0,2 km/h (0 Bft) W-SW 247 0 min 0,0 UV-I 13,0 C 15,7 C 0,0 km/h (0 Bft)
31.05.2011 06:40 19,5 C 20,4 C 16,4 C 18,3 C 16,0 C 0,0 C 68 % 80 % 0 % 1011,2 hPa 0,0 l/m 0,0 km/h (0 Bft) W-SW 247 0 min 0,0 UV-I 13,4 C 16,0 C 0,0 km/h (0 Bft)
31.05.2011 06:45 19,7 C 20,4 C 16,7 C 18,5 C 16,2 C 0,0 C 67 % 80 % 0 % 1011,2 hPa 0,0 l/m 0,0 km/h (0 Bft) W-NW 292 0 min 0,0 UV-I 13,4 C 16,2 C 0,0 km/h (0 Bft)
31.05.2011 06:50 22,3 C 20,4 C 16,9 C 20,7 C 17,4 C 0,0 C 63 % 78 % 0 % 1011,0 hPa 0,0 l/m 0,0 km/h (0 Bft) W-SW 247 0 min 0,0 UV-I 14,9 C 17,4 C 0,0 km/h (0 Bft)
31.05.2011 06:55 23,1 C 20,3 C 17,4 C 22,0 C 19,9 C 0,0 C 60 % 78 % 0 % 1011,0 hPa 0,0 l/m 0,0 km/h (0 Bft) W-SW 247 0 min 0,0 UV-I 14,9 C 19,9 C 1,6 km/h (1 Bft)
31.05.2011 07:00 22,4 C 20,4 C 17,8 C 22,8 C 22,8 C 0,4 C 61 % 77 % 11 % 1011,0 hPa 0,0 l/m 0,2 km/h (0 Bft) SW 225 0 min 0,0 UV-I 14,5 C 22,8 C 1,9 km/h (1 Bft)
31.05.2011 07:10 22,5 C 20,3 C 17,9 C 25,1 C 25,1 C 2,6 C 59 % 76 % 68 % 1010,8 hPa 0,0 l/m 0,2 km/h (0 Bft) N 0 0 min 0,1 UV-I 14,1 C 25,1 C 0,0 km/h (0 Bft)
31.05.2011 07:15 22,0 C 20,3 C 18,1 C 26,1 C 26,1 C 4,1 C 60 % 76 % 100 % 1010,8 hPa 0,0 l/m 0,0 km/h (0 Bft) N 360 5 min 0,1 UV-I 13,9 C 26,1 C 0,0 km/h (0 Bft)
31.05.2011 07:20 21,8 C 20,3 C 18,1 C 27,0 C 27,0 C 5,2 C 62 % 77 % 100 % 1010,8 hPa 0,0 l/m 0,2 km/h (0 Bft) NW 315 5 min 0,1 UV-I 14,2 C 27,0 C 0,0 km/h (0 Bft)
31.05.2011 07:25 21,7 C 20,2 C 18,1 C 27,4 C 27,4 C 5,7 C 62 % 77 % 100 % 1010,8 hPa 0,0 l/m 0,2 km/h (0 Bft) N 360 5 min 0,1 UV-I 14,1 C 27,4 C 0,0 km/h (0 Bft)
31.05.2011 07:30 21,8 C 20,2 C 18,0 C 28,4 C 28,4 C 6,6 C 62 % 77 % 100 % 1011,3 hPa 0,0 l/m 0,0 km/h (0 Bft) NW 315 5 min 0,2 UV-I 14,2 C 28,4 C 0,0 km/h (0 Bft)
31.05.2011 07:35 21,8 C 20,2 C 18,0 C 28,6 C 28,6 C 6,8 C 62 % 77 % 100 % 1011,3 hPa 0,0 l/m 0,2 km/h (0 Bft) S 180 5 min 0,2 UV-I 14,2 C 28,6 C 0,0 km/h (0 Bft)
31.05.2011 07:40 21,9 C 20,2 C 18,3 C 29,1 C 29,1 C 7,2 C 62 % 77 % 100 % 1011,3 hPa 0,0 l/m 0,2 km/h (0 Bft) NW 315 5 min 0,2 UV-I 14,3 C 29,1 C 0,0 km/h (0 Bft)
31.05.2011 07:45 21,9 C 20,2 C 18,3 C 29,6 C 29,6 C 7,7 C 62 % 77 % 100 % 1011,3 hPa 0,0 l/m 0,2 km/h (0 Bft) N-NO 22 5 min 0,3 UV-I 14,3 C 29,6 C 0,0 km/h (0 Bft)
31.05.2011 07:50 22,4 C 20,3 C 18,4 C 30,1 C 30,1 C 7,7 C 62 % 77 % 100 % 1011,1 hPa 0,0 l/m 0,2 km/h (0 Bft) O-NO 67 5 min 0,3 UV-I 14,8 C 30,1 C 2,3 km/h (1 Bft)
31.05.2011 07:55 23,0 C 20,2 C 18,4 C 29,9 C 29,9 C 6,9 C 60 % 77 % 100 % 1011,1 hPa 0,0 l/m 0,2 km/h (0 Bft) N-NW 337 5 min 0,4 UV-I 14,8 C 29,9 C 0,0 km/h (0 Bft)
31.05.2011 08:00 22,8 C 20,2 C 18,7 C 29,9 C 29,9 C 7,1 C 60 % 76 % 100 % 1011,1 hPa 0,0 l/m 0,3 km/h (0 Bft) S 180 5 min 0,4 UV-I 14,6 C 29,9 C 0,0 km/h (0 Bft)
31.05.2011 08:08 22,8 C 20,2 C 18,9 C 30,5 C 30,5 C 7,7 C 60 % 75 % 100 % 1011,1 hPa 0,0 l/m 0,5 km/h (0 Bft) N 0 8 min 0,5 UV-I 14,6 C 30,5 C 0,0 km/h (0 Bft)
31.05.2011 08:15 23,4 C 20,2 C 19,0 C 30,7 C 30,7 C 7,3 C 59 % 75 % 100 % 1011,1 hPa 0,0 l/m 0,5 km/h (0 Bft) SW 225 7 min 0,5 UV-I 14,9 C 30,7 C 0,0 km/h (0 Bft)
31.05.2011 08:20 24,1 C 20,2 C 19,1 C 30,6 C 30,6 C 6,5 C 57 % 75 % 100 % 1011,1 hPa 0,0 l/m 0,3 km/h (0 Bft) S 180 5 min 0,5 UV-I 15,0 C 30,6 C 0,0 km/h (0 Bft)
31.05.2011 08:25 24,1 C 20,2 C 19,3 C 30,9 C 30,9 C 6,8 C 57 % 75 % 100 % 1011,1 hPa 0,0 l/m 0,3 km/h (0 Bft) SW 225 5 min 0,6 UV-I 15,0 C 30,9 C 0,0 km/h (0 Bft)
31.05.2011 08:30 26,4 C 20,2 C 19,5 C 31,4 C 31,4 C 5,0 C 52 % 74 % 100 % 1010,9 hPa 0,0 l/m 0,2 km/h (0 Bft) SO 135 5 min 0,7 UV-I 15,7 C 31,4 C 0,0 km/h (0 Bft)
31.05.2011 08:35 26,1 C 20,2 C 19,6 C 31,8 C 31,8 C 5,7 C 52 % 73 % 100 % 1010,9 hPa 0,0 l/m 0,2 km/h (0 Bft) S-SW 202 5 min 0,7 UV-I 15,5 C 31,8 C 0,0 km/h (0 Bft)
31.05.2011 08:40 25,5 C 20,2 C 19,7 C 32,3 C 32,3 C 6,8 C 53 % 73 % 100 % 1010,9 hPa 0,0 l/m 0,0 km/h (0 Bft) W-NW 292 5 min 0,8 UV-I 15,2 C 32,3 C 1,9 km/h (1 Bft)
31.05.2011 08:45 25,5 C 20,2 C 19,9 C 32,4 C 32,4 C 6,9 C 53 % 73 % 100 % 1010,9 hPa 0,0 l/m 0,2 km/h (0 Bft) O-NO 67 5 min 0,8 UV-I 15,2 C 32,4 C 2,6 km/h (1 Bft)
31.05.2011 08:50 25,5 C 20,2 C 20,1 C 32,3 C 32,3 C 6,8 C 54 % 72 % 100 % 1010,9 hPa 0,0 l/m 0,3 km/h (0 Bft) O-SO 112 5 min 0,9 UV-I 15,5 C 32,3 C 0,0 km/h (0 Bft)
31.05.2011 08:55 25,5 C 20,2 C 20,2 C 32,6 C 32,6 C 7,1 C 53 % 72 % 100 % 1010,9 hPa 0,0 l/m 0,5 km/h (0 Bft) SW 225 5 min 1,0 UV-I 15,2 C 32,6 C 0,0 km/h (0 Bft)
31.05.2011 09:00 25,1 C 20,2 C 20,4 C 32,4 C 32,4 C 7,3 C 55 % 73 % 100 % 1010,9 hPa 0,0 l/m 1,0 km/h (0 Bft) N-NW 337 5 min 1,1 UV-I 15,4 C 32,4 C 0,0 km/h (0 Bft)
31.05.2011 09:08 25,1 C 20,2 C 20,8 C 33,2 C 33,2 C 8,1 C 55 % 71 % 100 % 1010,9 hPa 0,0 l/m 0,3 km/h (0 Bft) N 0 8 min 1,3 UV-I 15,4 C 33,2 C 0,0 km/h (0 Bft)
31.05.2011 09:15 25,0 C 20,2 C 21,0 C 33,4 C 33,4 C 8,4 C 56 % 71 % 100 % 1010,9 hPa 0,0 l/m 0,3 km/h (0 Bft) N-NW 337 7 min 1,4 UV-I 15,6 C 33,4 C 1,8 km/h (1 Bft)
31.05.2011 09:20 25,0 C 20,2 C 21,1 C 33,6 C 33,6 C 8,6 C 56 % 72 % 100 % 1010,9 hPa 0,0 l/m 0,3 km/h (0 Bft) N-NO 22 5 min 1,4 UV-I 15,6 C 33,6 C 0,0 km/h (0 Bft)
31.05.2011 09:25 25,1 C 20,2 C 21,3 C 33,0 C 33,0 C 7,9 C 56 % 72 % 100 % 1010,9 hPa 0,0 l/m 0,8 km/h (0 Bft) SW 225 5 min 1,4 UV-I 15,7 C 33,0 C 1,6 km/h (1 Bft)
31.05.2011 09:30 25,1 C 20,2 C 21,4 C 32,9 C 32,9 C 7,8 C 56 % 72 % 100 % 1011,1 hPa 0,0 l/m 1,3 km/h (1 Bft) NW 315 5 min 1,4 UV-I 15,7 C 32,9 C 2,6 km/h (1 Bft)
31.05.2011 09:35 25,3 C 20,2 C 21,5 C 32,6 C 32,6 C 7,3 C 57 % 72 % 100 % 1011,1 hPa 0,0 l/m 1,0 km/h (0 Bft) NO 45 5 min 1,5 UV-I 16,2 C 32,6 C 0,0 km/h (0 Bft)
31.05.2011 09:40 25,2 C 20,2 C 21,8 C 32,9 C 32,9 C 7,7 C 56 % 70 % 100 % 1011,1 hPa 0,0 l/m 0,8 km/h (0 Bft) S-SW 202 5 min 1,4 UV-I 15,8 C 32,9 C 3,5 km/h (1 Bft)
31.05.2011 09:45 25,3 C 20,2 C 22,0 C 33,1 C 33,1 C 7,8 C 55 % 69 % 100 % 1011,1 hPa 0,0 l/m 0,8 km/h (0 Bft) SW 225 5 min 1,1 UV-I 15,6 C 33,1 C 0,0 km/h (0 Bft)
31.05.2011 09:50 25,4 C 20,2 C 22,1 C 33,7 C 33,7 C 8,3 C 55 % 70 % 100 % 1010,9 hPa 0,0 l/m 0,8 km/h (0 Bft) SW 225 5 min 1,1 UV-I 15,7 C 33,7 C 1,8 km/h (1 Bft)
31.05.2011 09:55 25,5 C 20,2 C 22,1 C 33,6 C 33,6 C 8,1 C 55 % 69 % 100 % 1010,9 hPa 0,0 l/m 0,6 km/h (0 Bft) O-SO 112 5 min 1,1 UV-I 15,8 C 33,6 C 0,0 km/h (0 Bft)
31.05.2011 10:00 25,5 C 20,2 C 22,3 C 33,6 C 33,6 C 8,1 C 55 % 69 % 100 % 1010,9 hPa 0,0 l/m 0,6 km/h (0 Bft) SW 225 5 min 1,1 UV-I 15,8 C 33,6 C 0,0 km/h (0 Bft)
31.05.2011 10:10 25,5 C 20,2 C 22,2 C 32,6 C 32,6 C 7,1 C 53 % 68 % 100 % 1010,9 hPa 0,0 l/m 2,4 km/h (1 Bft) N 0 10 min 1,2 UV-I 15,2 C 32,6 C 7,7 km/h (2 Bft)
31.05.2011 10:15 25,6 C 20,2 C 22,7 C 32,0 C 32,0 C 6,4 C 52 % 65 % 100 % 1010,9 hPa 0,0 l/m 3,5 km/h (1 Bft) S 180 5 min 1,1 UV-I 15,0 C 32,0 C 4,3 km/h (1 Bft)
31.05.2011 10:20 25,6 C 20,3 C 22,9 C 31,4 C 31,4 C 5,8 C 52 % 63 % 100 % 1010,9 hPa 0,0 l/m 4,5 km/h (1 Bft) S-SO 157 5 min 1,1 UV-I 15,0 C 31,4 C 9,3 km/h (2 Bft)
31.05.2011 10:25 25,8 C 20,2 C 23,1 C 31,8 C 31,8 C 6,0 C 52 % 63 % 100 % 1010,9 hPa 0,0 l/m 4,5 km/h (1 Bft) S-SW 202 5 min 1,2 UV-I 15,2 C 31,8 C 8,5 km/h (2 Bft)
31.05.2011 10:30 25,9 C 20,2 C 23,3 C 31,7 C 31,7 C 5,8 C 51 % 62 % 100 % 1010,9 hPa 0,0 l/m 5,0 km/h (1 Bft) S-SW 202 5 min 2,1 UV-I 15,0 C 31,7 C 9,7 km/h (2 Bft)
31.05.2011 10:35 26,1 C 20,2 C 23,5 C 31,9 C 31,9 C 5,8 C 51 % 61 % 100 % 1010,9 hPa 0,0 l/m 5,8 km/h (2 Bft) S-SW 202 5 min 2,4 UV-I 15,2 C 31,9 C 8,5 km/h (2 Bft)
31.05.2011 10:40 26,1 C 20,3 C 23,9 C 31,6 C 31,6 C 5,5 C 50 % 59 % 100 % 1010,9 hPa 0,0 l/m 6,3 km/h (2 Bft) NO 45 5 min 2,5 UV-I 14,8 C 31,6 C 13,2 km/h (3 Bft)
31.05.2011 10:45 26,3 C 20,3 C 23,9 C 31,4 C 31,4 C 5,1 C 50 % 59 % 100 % 1010,9 hPa 0,0 l/m 6,8 km/h (2 Bft) SW 225 5 min 2,6 UV-I 15,0 C 31,4 C 7,1 km/h (2 Bft)
31.05.2011 10:50 26,3 C 20,3 C 24,1 C 31,0 C 31,0 C 4,7 C 51 % 59 % 100 % 1010,8 hPa 0,0 l/m 7,1 km/h (2 Bft) SW 225 5 min 2,5 UV-I 15,3 C 31,0 C 6,3 km/h (2 Bft)
31.05.2011 10:55 26,5 C 20,3 C 24,2 C 31,3 C 31,3 C 4,8 C 51 % 59 % 100 % 1010,8 hPa 0,0 l/m 5,8 km/h (2 Bft) O 90 5 min 2,7 UV-I 15,5 C 31,3 C 2,9 km/h (1 Bft)
31.05.2011 11:00 26,6 C 20,3 C 24,2 C 32,2 C 32,2 C 5,6 C 50 % 59 % 100 % 1010,8 hPa 0,0 l/m 3,4 km/h (1 Bft) S 180 5 min 2,7 UV-I 15,3 C 32,2 C 7,4 km/h (2 Bft)
31.05.2011 11:10 26,8 C 20,4 C 24,3 C 32,8 C 32,8 C 6,0 C 49 % 59 % 100 % 1010,8 hPa 0,0 l/m 3,1 km/h (1 Bft) N 0 10 min 2,9 UV-I 15,2 C 32,8 C 5,6 km/h (1 Bft)
31.05.2011 11:15 26,8 C 20,4 C 24,4 C 32,7 C 32,7 C 5,9 C 49 % 58 % 100 % 1010,8 hPa 0,0 l/m 3,7 km/h (1 Bft) SW 225 5 min 3,0 UV-I 15,2 C 32,7 C 4,5 km/h (1 Bft)
31.05.2011 11:20 26,9 C 20,4 C 24,8 C 32,4 C 32,4 C 5,5 C 50 % 59 % 100 % 1010,8 hPa 0,0 l/m 5,0 km/h (1 Bft) SW 225 5 min 2,8 UV-I 15,6 C 32,4 C 8,4 km/h (2 Bft)
31.05.2011 11:25 27,1 C 20,4 C 24,8 C 32,6 C 32,6 C 5,5 C 49 % 58 % 100 % 1010,8 hPa 0,0 l/m 4,0 km/h (1 Bft) S 180 5 min 1,6 UV-I 15,4 C 32,6 C 4,3 km/h (1 Bft)
31.05.2011 11:30 27,2 C 20,4 C 24,9 C 32,9 C 32,9 C 5,7 C 48 % 57 % 100 % 1010,6 hPa 0,0 l/m 3,4 km/h (1 Bft) S-SW 202 5 min 1,5 UV-I 15,2 C 32,9 C 4,7 km/h (1 Bft)
31.05.2011 11:35 27,3 C 20,5 C 25,1 C 32,8 C 32,8 C 5,5 C 48 % 57 % 100 % 1010,6 hPa 0,0 l/m 4,0 km/h (1 Bft) S-SW 202 5 min 1,5 UV-I 15,3 C 32,8 C 7,1 km/h (2 Bft)
31.05.2011 11:40 27,4 C 20,4 C 25,3 C 32,6 C 32,6 C 5,2 C 48 % 56 % 100 % 1010,6 hPa 0,0 l/m 4,7 km/h (1 Bft) S-SO 157 5 min 2,0 UV-I 15,4 C 32,6 C 1,8 km/h (1 Bft)
31.05.2011 11:45 27,5 C 20,4 C 25,3 C 32,8 C 32,8 C 5,3 C 48 % 57 % 100 % 1010,6 hPa 0,0 l/m 3,7 km/h (1 Bft) SW 225 5 min 2,2 UV-I 15,5 C 32,8 C 3,2 km/h (1 Bft)
31.05.2011 11:50 27,5 C 20,4 C 25,2 C 32,9 C 32,9 C 5,4 C 48 % 57 % 100 % 1010,5 hPa 0,0 l/m 2,1 km/h (1 Bft) N 360 5 min 1,9 UV-I 15,5 C 32,9 C 1,8 km/h (1 Bft)
31.05.2011 11:55 27,6 C 20,4 C 25,3 C 33,0 C 33,0 C 5,4 C 49 % 57 % 100 % 1010,5 hPa 0,0 l/m 1,8 km/h (1 Bft) O-SO 112 5 min 2,6 UV-I 15,9 C 33,0 C 2,6 km/h (1 Bft)
31.05.2011 12:00 27,9 C 20,5 C 25,5 C 33,6 C 33,6 C 5,7 C 49 % 57 % 100 % 1010,5 hPa 0,0 l/m 2,1 km/h (1 Bft) SW 225 5 min 3,0 UV-I 16,2 C 33,6 C 4,8 km/h (1 Bft)
31.05.2011 12:10 27,9 C 20,6 C 26,0 C 32,7 C 32,7 C 4,8 C 49 % 55 % 100 % 1010,3 hPa 0,0 l/m 4,8 km/h (1 Bft) N 0 10 min 2,7 UV-I 16,2 C 32,7 C 6,0 km/h (2 Bft)
31.05.2011 12:15 27,9 C 20,6 C 26,3 C 32,8 C 32,8 C 4,9 C 49 % 56 % 100 % 1010,3 hPa 0,0 l/m 3,9 km/h (1 Bft) SW 225 5 min 3,2 UV-I 16,2 C 32,8 C 2,3 km/h (1 Bft)
31.05.2011 12:20 28,1 C 20,5 C 26,3 C 33,7 C 33,7 C 5,6 C 47 % 54 % 100 % 1010,3 hPa 0,0 l/m 2,1 km/h (1 Bft) W-SW 247 5 min 3,2 UV-I 15,7 C 33,7 C 5,8 km/h (2 Bft)
31.05.2011 12:25 28,0 C 20,6 C 26,6 C 33,4 C 33,4 C 5,4 C 47 % 52 % 100 % 1010,3 hPa 0,0 l/m 2,1 km/h (1 Bft) S 180 5 min 2,9 UV-I 15,6 C 33,4 C 3,1 km/h (1 Bft)
31.05.2011 12:30 28,0 C 20,7 C 26,8 C 33,4 C 33,4 C 5,4 C 47 % 52 % 100 % 1010,4 hPa 0,0 l/m 3,7 km/h (1 Bft) SW 225 5 min 3,4 UV-I 15,6 C 33,4 C 6,1 km/h (2 Bft)
31.05.2011 12:35 28,1 C 20,7 C 26,9 C 33,1 C 33,1 C 5,0 C 47 % 52 % 100 % 1010,4 hPa 0,0 l/m 4,5 km/h (1 Bft) SW 225 5 min 3,4 UV-I 15,7 C 33,1 C 7,2 km/h (2 Bft)
31.05.2011 12:40 28,3 C 20,7 C 27,1 C 33,1 C 33,1 C 4,8 C 45 % 51 % 100 % 1010,4 hPa 0,0 l/m 4,5 km/h (1 Bft) SO 135 5 min 3,6 UV-I 15,2 C 33,1 C 0,0 km/h (0 Bft)
31.05.2011 12:45 28,5 C 20,6 C 26,9 C 33,2 C 33,2 C 4,7 C 45 % 50 % 100 % 1010,4 hPa 0,0 l/m 2,9 km/h (1 Bft) SO 135 5 min 3,7 UV-I 15,4 C 33,2 C 0,0 km/h (0 Bft)
31.05.2011 12:50 28,7 C 20,7 C 26,9 C 33,9 C 33,9 C 5,2 C 46 % 50 % 100 % 1010,4 hPa 0,0 l/m 1,1 km/h (1 Bft) S-SO 157 5 min 3,8 UV-I 15,9 C 33,9 C 3,4 km/h (1 Bft)
31.05.2011 12:55 28,6 C 20,7 C 26,8 C 34,0 C 34,0 C 5,4 C 45 % 51 % 100 % 1010,4 hPa 0,0 l/m 2,6 km/h (1 Bft) S 180 5 min 3,9 UV-I 15,5 C 34,0 C 5,5 km/h (1 Bft)
31.05.2011 13:00 28,8 C 20,7 C 27,1 C 34,1 C 34,1 C 5,3 C 45 % 50 % 100 % 1010,4 hPa 0,0 l/m 3,5 km/h (1 Bft) SW 225 5 min 3,9 UV-I 15,7 C 34,1 C 3,9 km/h (1 Bft)
31.05.2011 13:10 28,7 C 20,8 C 27,6 C 33,8 C 33,8 C 5,1 C 43 % 46 % 100 % 1010,2 hPa 0,0 l/m 3,4 km/h (1 Bft) N 0 10 min 3,5 UV-I 14,9 C 33,8 C 1,8 km/h (1 Bft)
31.05.2011 13:15 28,8 C 20,8 C 27,5 C 33,7 C 33,7 C 4,9 C 43 % 47 % 100 % 1010,2 hPa 0,0 l/m 2,7 km/h (1 Bft) N-NO 22 5 min 3,4 UV-I 15,0 C 33,7 C 2,4 km/h (1 Bft)
31.05.2011 13:20 29,0 C 20,8 C 27,5 C 34,0 C 34,0 C 5,0 C 43 % 48 % 100 % 1010,2 hPa 0,0 l/m 2,3 km/h (1 Bft) O-NO 67 5 min 3,6 UV-I 15,1 C 34,0 C 5,3 km/h (1 Bft)
31.05.2011 13:25 29,1 C 20,8 C 27,7 C 33,8 C 33,8 C 4,7 C 43 % 48 % 100 % 1010,2 hPa 0,0 l/m 3,5 km/h (1 Bft) O-NO 67 5 min 3,7 UV-I 15,2 C 33,8 C 7,2 km/h (2 Bft)
31.05.2011 13:30 29,2 C 20,9 C 27,7 C 33,4 C 33,4 C 4,2 C 43 % 49 % 100 % 1010,0 hPa 0,0 l/m 3,5 km/h (1 Bft) S 180 5 min 3,1 UV-I 15,3 C 33,4 C 2,6 km/h (1 Bft)
31.05.2011 13:35 29,3 C 20,9 C 27,7 C 33,9 C 33,9 C 4,6 C 43 % 51 % 100 % 1010,0 hPa 0,0 l/m 2,7 km/h (1 Bft) S 180 5 min 3,6 UV-I 15,4 C 33,9 C 2,3 km/h (1 Bft)
31.05.2011 13:40 28,9 C 20,9 C 27,7 C 33,3 C 33,3 C 4,4 C 44 % 49 % 100 % 1010,0 hPa 0,0 l/m 2,3 km/h (1 Bft) NO 45 5 min 1,8 UV-I 15,4 C 33,3 C 2,3 km/h (1 Bft)
31.05.2011 13:45 28,6 C 20,9 C 27,2 C 32,0 C 32,0 C 3,4 C 45 % 49 % 89 % 1010,0 hPa 0,0 l/m 1,4 km/h (1 Bft) NO 45 5 min 0,9 UV-I 15,5 C 32,0 C 0,0 km/h (0 Bft)
31.05.2011 13:50 28,2 C 21,0 C 27,1 C 30,4 C 30,4 C 2,2 C 45 % 49 % 58 % 1009,6 hPa 0,0 l/m 1,1 km/h (1 Bft) O-NO 67 0 min 0,9 UV-I 15,1 C 30,4 C 4,2 km/h (1 Bft)
31.05.2011 13:55 28,0 C 21,0 C 26,9 C 29,5 C 29,5 C 1,5 C 45 % 49 % 39 % 1009,6 hPa 0,0 l/m 1,3 km/h (1 Bft) NO 45 0 min 0,5 UV-I 14,9 C 29,5 C 0,0 km/h (0 Bft)
31.05.2011 14:00 27,8 C 21,0 C 26,7 C 28,7 C 28,7 C 0,9 C 46 % 52 % 24 % 1009,6 hPa 0,0 l/m 1,1 km/h (1 Bft) N-NO 22 0 min 0,4 UV-I 15,1 C 28,7 C 0,0 km/h (0 Bft)
31.05.2011 14:08 27,4 C 21,0 C 26,1 C 27,8 C 27,8 C 0,4 C 49 % 54 % 11 % 1009,3 hPa 0,0 l/m 0,2 km/h (0 Bft) N 0 0 min 0,2 UV-I 15,7 C 27,8 C 0,0 km/h (0 Bft)
31.05.2011 14:15 27,2 C 21,1 C 25,9 C 27,4 C 27,4 C 0,2 C 49 % 55 % 5 % 1009,3 hPa 0,0 l/m 0,0 km/h (0 Bft) N-NW 337 0 min 0,2 UV-I 15,5 C 27,4 C 0,0 km/h (0 Bft)
31.05.2011 14:20 27,1 C 21,2 C 25,5 C 27,2 C 27,2 C 0,1 C 50 % 57 % 3 % 1009,3 hPa 0,0 l/m 0,6 km/h (0 Bft) S 180 0 min 0,2 UV-I 15,8 C 27,2 C 0,0 km/h (0 Bft)
31.05.2011 14:25 26,9 C 21,2 C 25,5 C 26,9 C 26,9 C 0,0 C 52 % 58 % 0 % 1009,3 hPa 0,0 l/m 2,1 km/h (1 Bft) W 270 0 min 0,2 UV-I 16,2 C 26,9 C 9,0 km/h (2 Bft)
31.05.2011 14:30 26,4 C 21,1 C 24,8 C 26,1 C 25,6 C 0,0 C 53 % 59 % 0 % 1009,9 hPa 0,0 l/m 5,1 km/h (1 Bft) SW 225 0 min 0,1 UV-I 16,0 C 25,6 C 5,8 km/h (2 Bft)
31.05.2011 14:35 26,0 C 21,1 C 24,5 C 25,7 C 25,1 C 0,0 C 52 % 58 % 0 % 1009,9 hPa 0,0 l/m 5,3 km/h (1 Bft) S 180 0 min 0,1 UV-I 15,4 C 25,1 C 3,5 km/h (1 Bft)
31.05.2011 14:40 25,9 C 21,1 C 24,3 C 25,4 C 24,5 C 0,0 C 51 % 57 % 0 % 1009,9 hPa 0,0 l/m 3,5 km/h (1 Bft) NW 315 0 min 0,0 UV-I 15,0 C 24,5 C 2,3 km/h (1 Bft)
31.05.2011 14:45 25,7 C 21,1 C 24,1 C 25,2 C 24,3 C 0,0 C 50 % 56 % 0 % 1009,9 hPa 0,0 l/m 3,9 km/h (1 Bft) W-SW 247 0 min 0,0 UV-I 14,5 C 24,3 C 6,3 km/h (2 Bft)
31.05.2011 14:50 25,4 C 21,1 C 23,8 C 24,9 C 23,9 C 0,0 C 49 % 52 % 0 % 1010,8 hPa 0,0 l/m 9,0 km/h (2 Bft) SW 225 0 min 0,0 UV-I 13,9 C 23,9 C 27,0 km/h (4 Bft)
31.05.2011 14:55 25,0 C 21,1 C 23,3 C 24,4 C 23,3 C 0,0 C 54 % 59 % 0 % 1010,8 hPa 0,0 l/m 12,4 km/h (3 Bft) S 180 0 min 0,0 UV-I 15,0 C 23,3 C 19,3 km/h (3 Bft)
31.05.2011 15:00 24,0 C 21,2 C 22,1 C 23,2 C 21,5 C 0,0 C 60 % 69 % 0 % 1010,8 hPa 0,0 l/m 13,7 km/h (3 Bft) SW 225 0 min 0,0 UV-I 15,7 C 21,5 C 12,2 km/h (2 Bft)
31.05.2011 15:10 22,8 C 21,3 C 20,7 C 21,7 C 19,4 C 0,0 C 64 % 73 % 0 % 1011,1 hPa 0,0 l/m 11,6 km/h (2 Bft) N 0 0 min 0,0 UV-I 15,6 C 19,4 C 4,2 km/h (1 Bft)
31.05.2011 15:15 22,5 C 21,4 C 20,4 C 21,3 C 19,0 C 0,0 C 66 % 75 % 0 % 1011,1 hPa 0,0 l/m 9,0 km/h (2 Bft) W-SW 247 0 min 0,0 UV-I 15,8 C 19,0 C 16,7 km/h (3 Bft)
31.05.2011 15:20 21,6 C 21,8 C 19,1 C 20,3 C 17,7 C 0,0 C 71 % 83 % 0 % 1011,1 hPa 2,7 l/m 9,2 km/h (2 Bft) SW 225 0 min 0,0 UV-I 16,1 C 17,7 C 13,7 km/h (3 Bft)
31.05.2011 15:25 21,1 C 21,8 C 18,0 C 19,8 C 17,1 C 0,0 C 72 % 85 % 0 % 1011,1 hPa 4,8 l/m 10,6 km/h (2 Bft) S 180 0 min 0,0 UV-I 15,8 C 17,1 C 17,4 km/h (3 Bft)
31.05.2011 15:30 20,3 C 21,8 C 17,6 C 19,1 C 16,6 C 0,0 C 76 % 88 % 0 % 1011,6 hPa 2,1 l/m 6,1 km/h (2 Bft) SW 225 0 min 0,0 UV-I 15,9 C 16,6 C 2,9 km/h (1 Bft)
31.05.2011 15:35 19,8 C 21,9 C 17,6 C 18,7 C 16,6 C 0,0 C 78 % 89 % 0 % 1011,6 hPa 0,0 l/m 3,2 km/h (1 Bft) NW 315 0 min 0,0 UV-I 15,8 C 16,6 C 5,1 km/h (1 Bft)
31.05.2011 15:40 19,6 C 21,8 C 17,5 C 18,6 C 16,6 C 0,0 C 79 % 90 % 0 % 1011,6 hPa 0,7 l/m 2,1 km/h (1 Bft) O-NO 67 0 min 0,0 UV-I 15,9 C 16,6 C 3,1 km/h (1 Bft)
31.05.2011 15:45 19,4 C 21,8 C 17,3 C 18,4 C 16,5 C 0,0 C 79 % 91 % 0 % 1011,6 hPa 0,0 l/m 2,4 km/h (1 Bft) S 180 0 min 0,0 UV-I 15,7 C 16,5 C 0,0 km/h (0 Bft)
31.05.2011 15:50 19,3 C 21,8 C 17,0 C 18,3 C 16,3 C 0,0 C 80 % 91 % 0 % 1011,9 hPa 0,7 l/m 2,7 km/h (1 Bft) W-SW 247 0 min 0,0 UV-I 15,8 C 16,3 C 3,2 km/h (1 Bft)
31.05.2011 15:55 19,2 C 21,8 C 16,8 C 18,2 C 16,2 C 0,0 C 80 % 91 % 0 % 1011,9 hPa 0,0 l/m 3,9 km/h (1 Bft) S 180 0 min 0,0 UV-I 15,7 C 16,2 C 6,1 km/h (2 Bft)
31.05.2011 16:00 19,1 C 21,8 C 16,6 C 18,1 C 16,2 C 0,0 C 80 % 91 % 0 % 1011,9 hPa 0,7 l/m 4,5 km/h (1 Bft) O-SO 112 0 min 0,0 UV-I 15,6 C 16,2 C 6,8 km/h (2 Bft)
31.05.2011 16:08 18,8 C 21,8 C 16,6 C 18,0 C 16,3 C 0,0 C 82 % 92 % 0 % 1011,7 hPa 0,0 l/m 1,8 km/h (1 Bft) N 0 0 min 0,0 UV-I 15,7 C 16,3 C 1,6 km/h (1 Bft)
31.05.2011 16:15 18,8 C 21,8 C 16,7 C 18,0 C 16,4 C 0,0 C 82 % 92 % 0 % 1011,7 hPa 0,0 l/m 0,8 km/h (0 Bft) N-NW 337 0 min 0,0 UV-I 15,7 C 16,4 C 4,2 km/h (1 Bft)
31.05.2011 16:20 18,7 C 21,8 C 16,7 C 17,9 C 16,4 C 0,0 C 83 % 93 % 0 % 1011,7 hPa 0,0 l/m 1,4 km/h (1 Bft) NO 45 0 min 0,0 UV-I 15,8 C 16,4 C 5,5 km/h (1 Bft)
31.05.2011 16:25 18,4 C 21,8 C 16,7 C 17,7 C 16,4 C 0,0 C 83 % 93 % 0 % 1011,7 hPa 0,0 l/m 2,4 km/h (1 Bft) O-NO 67 0 min 0,0 UV-I 15,5 C 16,4 C 2,9 km/h (1 Bft)
31.05.2011 16:30 18,5 C 21,8 C 16,7 C 17,9 C 16,6 C 0,0 C 84 % 93 % 0 % 1011,7 hPa 0,0 l/m 2,6 km/h (1 Bft) S 180 0 min 0,0 UV-I 15,7 C 16,6 C 0,0 km/h (0 Bft)
31.05.2011 16:35 18,7 C 21,8 C 16,7 C 18,0 C 16,6 C 0,0 C 84 % 93 % 0 % 1011,7 hPa 0,0 l/m 1,6 km/h (1 Bft) N-NW 337 0 min 0,0 UV-I 15,9 C 16,6 C 0,0 km/h (0 Bft)
31.05.2011 16:40 18,5 C 21,8 C 16,7 C 17,9 C 16,8 C 0,0 C 84 % 93 % 0 % 1011,7 hPa 0,0 l/m 0,5 km/h (0 Bft) NW 315 0 min 0,0 UV-I 15,7 C 16,8 C 0,0 km/h (0 Bft)
31.05.2011 16:45 18,6 C 21,8 C 16,7 C 18,0 C 16,8 C 0,0 C 84 % 93 % 0 % 1011,7 hPa 0,0 l/m 0,2 km/h (0 Bft) N-NO 22 0 min 0,0 UV-I 15,8 C 16,8 C 0,0 km/h (0 Bft)
31.05.2011 16:50 18,5 C 21,8 C 16,7 C 18,0 C 16,9 C 0,0 C 84 % 93 % 0 % 1011,3 hPa 0,0 l/m 0,2 km/h (0 Bft) O-SO 112 0 min 0,0 UV-I 15,7 C 16,9 C 0,0 km/h (0 Bft)
31.05.2011 16:55 18,7 C 21,8 C 16,8 C 18,1 C 17,0 C 0,0 C 84 % 94 % 0 % 1011,3 hPa 0,0 l/m 0,0 km/h (0 Bft) N-NO 22 0 min 0,0 UV-I 15,9 C 17,0 C 0,0 km/h (0 Bft)
31.05.2011 17:00 18,5 C 21,8 C 16,9 C 18,0 C 17,1 C 0,0 C 84 % 94 % 0 % 1011,3 hPa 0,0 l/m 0,0 km/h (0 Bft) O 90 0 min 0,1 UV-I 15,7 C 17,1 C 0,0 km/h (0 Bft)
31.05.2011 17:08 18,7 C 21,7 C 17,1 C 18,4 C 17,7 C 0,0 C 85 % 94 % 0 % 1011,6 hPa 0,0 l/m 0,3 km/h (0 Bft) N 0 0 min 0,2 UV-I 16,1 C 17,7 C 0,0 km/h (0 Bft)
31.05.2011 17:15 18,7 C 21,7 C 17,1 C 18,4 C 17,9 C 0,0 C 85 % 94 % 0 % 1011,6 hPa 0,0 l/m 0,3 km/h (0 Bft) N-NO 22 0 min 0,2 UV-I 16,1 C 17,9 C 1,6 km/h (1 Bft)
31.05.2011 17:20 18,8 C 21,7 C 17,2 C 18,6 C 18,2 C 0,0 C 86 % 94 % 0 % 1011,6 hPa 0,0 l/m 0,0 km/h (0 Bft) NO 45 0 min 0,2 UV-I 16,4 C 18,2 C 0,0 km/h (0 Bft)
31.05.2011 17:25 18,9 C 21,7 C 17,3 C 18,7 C 18,4 C 0,0 C 85 % 94 % 0 % 1011,6 hPa 0,0 l/m 0,0 km/h (0 Bft) NO 45 0 min 0,2 UV-I 16,3 C 18,4 C 0,0 km/h (0 Bft)
31.05.2011 17:30 18,9 C 21,7 C 17,2 C 18,8 C 18,6 C 0,0 C 86 % 94 % 0 % 1011,4 hPa 0,0 l/m 0,0 km/h (0 Bft) NO 45 0 min 0,2 UV-I 16,5 C 18,6 C 0,0 km/h (0 Bft)
31.05.2011 17:35 18,9 C 21,7 C 17,3 C 18,9 C 18,8 C 0,0 C 86 % 94 % 0 % 1011,4 hPa 0,0 l/m 0,0 km/h (0 Bft) NO 45 0 min 0,2 UV-I 16,5 C 18,8 C 0,0 km/h (0 Bft)
31.05.2011 17:40 18,9 C 21,6 C 17,4 C 19,0 C 19,0 C 0,1 C 86 % 94 % 3 % 1011,4 hPa 0,0 l/m 1,0 km/h (0 Bft) NO 45 0 min 0,2 UV-I 16,5 C 19,0 C 1,6 km/h (1 Bft)
31.05.2011 17:45 19,0 C 21,7 C 17,5 C 19,0 C 19,0 C 0,0 C 86 % 94 % 0 % 1011,4 hPa 0,0 l/m 1,1 km/h (1 Bft) N 360 0 min 0,3 UV-I 16,6 C 19,0 C 0,0 km/h (0 Bft)
31.05.2011 17:50 19,3 C 21,7 C 17,6 C 19,3 C 19,3 C 0,0 C 86 % 94 % 0 % 1010,9 hPa 0,0 l/m 1,0 km/h (0 Bft) SW 225 0 min 0,3 UV-I 16,9 C 19,3 C 0,0 km/h (0 Bft)
31.05.2011 17:55 19,3 C 21,6 C 17,7 C 19,5 C 19,5 C 0,2 C 86 % 94 % 5 % 1010,9 hPa 0,0 l/m 0,6 km/h (0 Bft) SW 225 0 min 0,3 UV-I 16,9 C 19,5 C 1,9 km/h (1 Bft)
31.05.2011 18:00 19,4 C 21,6 C 17,9 C 19,7 C 19,7 C 0,3 C 86 % 94 % 8 % 1010,9 hPa 0,0 l/m 1,6 km/h (1 Bft) S 180 0 min 0,3 UV-I 17,0 C 19,7 C 0,0 km/h (0 Bft)
31.05.2011 18:08 19,9 C 21,6 C 18,3 C 20,6 C 20,6 C 0,7 C 86 % 94 % 18 % 1011,1 hPa 0,0 l/m 0,8 km/h (0 Bft) N 0 0 min 0,3 UV-I 17,5 C 20,6 C 4,3 km/h (1 Bft)
31.05.2011 18:15 20,0 C 21,6 C 18,7 C 21,0 C 21,0 C 1,0 C 86 % 95 % 26 % 1011,1 hPa 0,0 l/m 1,4 km/h (1 Bft) SW 225 0 min 0,3 UV-I 17,6 C 21,0 C 4,0 km/h (1 Bft)
31.05.2011 18:20 20,1 C 21,6 C 18,7 C 21,2 C 21,2 C 1,1 C 86 % 94 % 29 % 1011,1 hPa 0,0 l/m 2,9 km/h (1 Bft) SW 225 0 min 0,3 UV-I 17,7 C 21,2 C 3,2 km/h (1 Bft)
31.05.2011 18:25 20,2 C 21,5 C 18,6 C 21,1 C 21,1 C 0,9 C 85 % 94 % 24 % 1011,1 hPa 0,0 l/m 3,2 km/h (1 Bft) SW 225 0 min 0,2 UV-I 17,6 C 21,1 C 7,6 km/h (2 Bft)
31.05.2011 18:30 20,0 C 21,5 C 18,4 C 20,8 C 20,8 C 0,8 C 84 % 94 % 21 % 1011,3 hPa 0,0 l/m 4,3 km/h (1 Bft) S 180 0 min 0,2 UV-I 17,2 C 20,8 C 5,1 km/h (1 Bft)
31.05.2011 18:35 20,1 C 21,5 C 18,4 C 20,7 C 20,7 C 0,6 C 84 % 94 % 16 % 1011,3 hPa 0,0 l/m 3,5 km/h (1 Bft) W-SW 247 0 min 0,2 UV-I 17,3 C 20,7 C 3,4 km/h (1 Bft)
31.05.2011 18:40 20,2 C 21,5 C 18,4 C 20,7 C 20,7 C 0,5 C 84 % 94 % 13 % 1011,3 hPa 0,0 l/m 1,0 km/h (0 Bft) SO 135 0 min 0,2 UV-I 17,4 C 20,7 C 0,0 km/h (0 Bft)
31.05.2011 18:45 20,2 C 21,5 C 18,4 C 20,7 C 20,7 C 0,5 C 84 % 94 % 13 % 1011,3 hPa 0,0 l/m 0,5 km/h (0 Bft) O 90 0 min 0,1 UV-I 17,4 C 20,7 C 0,0 km/h (0 Bft)
31.05.2011 18:50 20,2 C 21,5 C 18,4 C 20,8 C 20,8 C 0,6 C 84 % 94 % 16 % 1011,2 hPa 0,0 l/m 0,2 km/h (0 Bft) SO 135 0 min 0,1 UV-I 17,4 C 20,8 C 0,0 km/h (0 Bft)
31.05.2011 18:55 20,2 C 21,4 C 18,4 C 20,9 C 20,9 C 0,7 C 84 % 94 % 18 % 1011,2 hPa 0,0 l/m 0,0 km/h (0 Bft) SO 135 0 min 0,1 UV-I 17,4 C 20,9 C 0,0 km/h (0 Bft)
31.05.2011 19:00 20,3 C 21,4 C 18,5 C 20,9 C 20,9 C 0,6 C 84 % 94 % 16 % 1011,2 hPa 0,0 l/m 0,3 km/h (0 Bft) S-SO 157 0 min 0,1 UV-I 17,5 C 20,9 C 2,1 km/h (1 Bft)
31.05.2011 19:08 20,3 C 21,4 C 18,3 C 20,6 C 20,6 C 0,3 C 83 % 94 % 8 % 1011,2 hPa 0,0 l/m 0,2 km/h (0 Bft) N 0 0 min 0,1 UV-I 17,3 C 20,6 C 0,0 km/h (0 Bft)
31.05.2011 19:15 20,2 C 21,4 C 18,3 C 20,5 C 20,5 C 0,3 C 84 % 94 % 8 % 1011,2 hPa 0,0 l/m 0,0 km/h (0 Bft) O-SO 112 0 min 0,0 UV-I 17,4 C 20,5 C 0,0 km/h (0 Bft)
31.05.2011 19:20 20,0 C 21,4 C 18,3 C 20,4 C 20,4 C 0,4 C 84 % 94 % 11 % 1011,2 hPa 0,0 l/m 0,0 km/h (0 Bft) O-SO 112 0 min 0,0 UV-I 17,2 C 20,4 C 0,0 km/h (0 Bft)
31.05.2011 19:25 20,1 C 21,4 C 18,3 C 20,2 C 20,2 C 0,1 C 84 % 94 % 3 % 1011,2 hPa 0,0 l/m 0,0 km/h (0 Bft) O-SO 112 0 min 0,0 UV-I 17,3 C 20,2 C 0,0 km/h (0 Bft)
31.05.2011 19:30 20,1 C 21,4 C 18,3 C 20,1 C 20,0 C 0,0 C 84 % 94 % 0 % 1011,4 hPa 0,0 l/m 0,0 km/h (0 Bft) SO 135 0 min 0,0 UV-I 17,3 C 20,0 C 0,0 km/h (0 Bft)
31.05.2011 19:35 20,0 C 21,4 C 18,2 C 20,0 C 20,0 C 0,0 C 84 % 94 % 0 % 1011,4 hPa 0,0 l/m 0,0 km/h (0 Bft) W-SW 247 0 min 0,0 UV-I 17,2 C 20,0 C 0,0 km/h (0 Bft)
31.05.2011 19:40 20,1 C 21,4 C 18,3 C 20,0 C 19,9 C 0,0 C 84 % 94 % 0 % 1011,4 hPa 0,0 l/m 0,5 km/h (0 Bft) W-SW 247 0 min 0,0 UV-I 17,3 C 19,9 C 0,0 km/h (0 Bft)
31.05.2011 19:45 20,1 C 21,4 C 18,4 C 20,0 C 19,9 C 0,0 C 84 % 94 % 0 % 1011,4 hPa 0,0 l/m 0,5 km/h (0 Bft) SW 225 0 min 0,0 UV-I 17,3 C 19,9 C 0,0 km/h (0 Bft)
31.05.2011 19:50 20,3 C 21,4 C 18,6 C 20,2 C 20,0 C 0,0 C 85 % 94 % 0 % 1011,9 hPa 0,0 l/m 0,3 km/h (0 Bft) W-SW 247 0 min 0,0 UV-I 17,7 C 20,0 C 0,0 km/h (0 Bft)
31.05.2011 19:55 20,2 C 21,4 C 18,6 C 20,1 C 20,0 C 0,0 C 85 % 94 % 0 % 1011,9 hPa 0,0 l/m 0,2 km/h (0 Bft) W-NW 292 0 min 0,0 UV-I 17,6 C 20,0 C 0,0 km/h (0 Bft)
31.05.2011 20:00 20,1 C 21,3 C 18,5 C 20,1 C 20,0 C 0,0 C 85 % 94 % 0 % 1011,9 hPa 0,0 l/m 0,0 km/h (0 Bft) W-NW 292 0 min 0,0 UV-I 17,5 C 20,0 C 0,0 km/h (0 Bft)
31.05.2011 20:08 20,1 C 21,3 C 18,5 C 20,0 C 19,8 C 0,0 C 84 % 94 % 0 % 1012,2 hPa 0,0 l/m 0,0 km/h (0 Bft) N 0 0 min 0,0 UV-I 17,3 C 19,8 C 0,0 km/h (0 Bft)
31.05.2011 20:15 20,1 C 21,3 C 18,4 C 20,0 C 19,7 C 0,0 C 84 % 94 % 0 % 1012,2 hPa 0,0 l/m 0,0 km/h (0 Bft) SW 225 0 min 0,0 UV-I 17,3 C 19,7 C 0,0 km/h (0 Bft)
31.05.2011 20:20 20,1 C 21,2 C 18,3 C 19,9 C 19,5 C 0,0 C 83 % 94 % 0 % 1012,2 hPa 0,0 l/m 0,5 km/h (0 Bft) S 180 0 min 0,0 UV-I 17,1 C 19,5 C 3,1 km/h (1 Bft)
31.05.2011 20:25 20,1 C 21,3 C 18,2 C 19,9 C 19,5 C 0,0 C 83 % 94 % 0 % 1012,2 hPa 0,0 l/m 0,5 km/h (0 Bft) S 180 0 min 0,0 UV-I 17,1 C 19,5 C 0,0 km/h (0 Bft)
31.05.2011 20:30 20,1 C 21,2 C 18,2 C 19,8 C 19,3 C 0,0 C 83 % 94 % 0 % 1012,3 hPa 0,0 l/m 1,8 km/h (1 Bft) S-SO 157 0 min 0,0 UV-I 17,1 C 19,3 C 3,7 km/h (1 Bft)
31.05.2011 20:35 19,9 C 21,2 C 18,2 C 19,6 C 19,1 C 0,0 C 83 % 94 % 0 % 1012,3 hPa 0,0 l/m 2,9 km/h (1 Bft) NO 45 0 min 0,0 UV-I 16,9 C 19,1 C 4,2 km/h (1 Bft)
31.05.2011 20:40 19,8 C 21,2 C 18,1 C 19,5 C 19,0 C 0,0 C 83 % 94 % 0 % 1012,3 hPa 0,0 l/m 2,9 km/h (1 Bft) SW 225 0 min 0,0 UV-I 16,8 C 19,0 C 3,5 km/h (1 Bft)
31.05.2011 20:45 19,9 C 21,2 C 18,1 C 19,6 C 18,9 C 0,0 C 83 % 94 % 0 % 1012,3 hPa 0,0 l/m 2,3 km/h (1 Bft) S 180 0 min 0,0 UV-I 16,9 C 18,9 C 1,9 km/h (1 Bft)
31.05.2011 20:50 19,8 C 21,1 C 18,0 C 19,4 C 18,7 C 0,0 C 83 % 94 % 0 % 1013,2 hPa 0,0 l/m 1,4 km/h (1 Bft) S 180 0 min 0,0 UV-I 16,8 C 18,7 C 3,1 km/h (1 Bft)
31.05.2011 20:55 19,7 C 21,1 C 18,0 C 19,4 C 18,7 C 0,0 C 83 % 94 % 0 % 1013,2 hPa 0,0 l/m 1,3 km/h (1 Bft) W-SW 247 0 min 0,0 UV-I 16,7 C 18,7 C 2,3 km/h (1 Bft)
31.05.2011 21:00 19,6 C 21,1 C 17,9 C 19,3 C 18,6 C 0,0 C 83 % 94 % 0 % 1013,2 hPa 0,0 l/m 2,3 km/h (1 Bft) W 270 0 min 0,0 UV-I 16,6 C 18,6 C 6,4 km/h (2 Bft)
31.05.2011 21:08 19,5 C 21,1 C 17,7 C 19,0 C 18,1 C 0,0 C 83 % 94 % 0 % 1013,5 hPa 0,0 l/m 2,4 km/h (1 Bft) N 0 0 min 0,0 UV-I 16,5 C 18,1 C 0,0 km/h (0 Bft)
31.05.2011 21:15 19,4 C 21,1 C 17,6 C 18,9 C 17,9 C 0,0 C 83 % 94 % 0 % 1013,5 hPa 0,0 l/m 2,4 km/h (1 Bft) W-SW 247 0 min 0,0 UV-I 16,4 C 17,9 C 4,5 km/h (1 Bft)
31.05.2011 21:20 19,5 C 21,1 C 17,6 C 18,9 C 17,8 C 0,0 C 83 % 94 % 0 % 1013,5 hPa 0,0 l/m 2,4 km/h (1 Bft) W-SW 247 0 min 0,0 UV-I 16,5 C 17,8 C 7,1 km/h (2 Bft)
31.05.2011 21:25 19,3 C 21,1 C 17,6 C 18,8 C 17,7 C 0,0 C 83 % 94 % 0 % 1013,5 hPa 0,0 l/m 2,4 km/h (1 Bft) SW 225 0 min 0,0 UV-I 16,3 C 17,7 C 2,7 km/h (1 Bft)
31.05.2011 21:30 19,2 C 21,1 C 17,4 C 18,7 C 17,6 C 0,0 C 83 % 93 % 0 % 1013,9 hPa 0,0 l/m 2,4 km/h (1 Bft) W-SW 247 0 min 0,0 UV-I 16,2 C 17,6 C 0,0 km/h (0 Bft)
31.05.2011 21:35 19,1 C 21,1 C 17,3 C 18,6 C 17,5 C 0,0 C 83 % 93 % 0 % 1013,9 hPa 0,0 l/m 2,3 km/h (1 Bft) W-NW 292 0 min 0,0 UV-I 16,1 C 17,5 C 3,5 km/h (1 Bft)
31.05.2011 21:40 19,1 C 21,1 C 17,2 C 18,5 C 17,4 C 0,0 C 83 % 93 % 0 % 1013,9 hPa 0,0 l/m 2,4 km/h (1 Bft) N-NW 337 0 min 0,0 UV-I 16,1 C 17,4 C 1,8 km/h (1 Bft)
31.05.2011 21:45 19,0 C 21,0 C 17,3 C 18,4 C 17,3 C 0,0 C 83 % 93 % 0 % 1013,9 hPa 0,0 l/m 1,8 km/h (1 Bft) W 270 0 min 0,0 UV-I 16,0 C 17,3 C 0,0 km/h (0 Bft)
31.05.2011 21:50 18,9 C 21,1 C 17,2 C 18,4 C 17,3 C 0,0 C 83 % 94 % 0 % 1014,2 hPa 0,0 l/m 1,0 km/h (0 Bft) SW 225 0 min 0,0 UV-I 15,9 C 17,3 C 5,3 km/h (1 Bft)
31.05.2011 21:55 18,8 C 21,0 C 17,1 C 18,3 C 17,3 C 0,0 C 83 % 94 % 0 % 1014,2 hPa 0,0 l/m 1,9 km/h (1 Bft) NO 45 0 min 0,0 UV-I 15,8 C 17,3 C 6,3 km/h (2 Bft)
31.05.2011 22:00 18,8 C 21,0 C 17,1 C 18,3 C 17,2 C 0,0 C 84 % 94 % 0 % 1014,2 hPa 0,0 l/m 2,4 km/h (1 Bft) SW 225 0 min 0,0 UV-I 16,0 C 17,2 C 8,0 km/h (2 Bft)
31.05.2011 22:08 18,7 C 21,0 C 17,1 C 18,2 C 17,1 C 0,0 C 84 % 94 % 0 % 1014,4 hPa 0,0 l/m 1,8 km/h (1 Bft) N 0 0 min 0,0 UV-I 15,9 C 17,1 C 0,0 km/h (0 Bft)
31.05.2011 22:15 18,6 C 21,1 C 17,0 C 18,1 C 17,1 C 0,0 C 84 % 94 % 0 % 1014,4 hPa 0,0 l/m 1,3 km/h (1 Bft) N-NW 337 0 min 0,0 UV-I 15,8 C 17,1 C 2,9 km/h (1 Bft)
31.05.2011 22:20 18,7 C 21,1 C 16,9 C 18,1 C 17,0 C 0,0 C 84 % 94 % 0 % 1014,4 hPa 0,0 l/m 1,3 km/h (1 Bft) S 180 0 min 0,0 UV-I 15,9 C 17,0 C 2,9 km/h (1 Bft)
31.05.2011 22:25 18,5 C 21,1 C 16,8 C 18,0 C 16,9 C 0,0 C 84 % 94 % 0 % 1014,4 hPa 0,0 l/m 2,3 km/h (1 Bft) W-SW 247 0 min 0,0 UV-I 15,7 C 16,9 C 3,4 km/h (1 Bft)
31.05.2011 22:30 18,5 C 21,0 C 16,9 C 18,0 C 16,9 C 0,0 C 84 % 94 % 0 % 1014,6 hPa 0,0 l/m 2,4 km/h (1 Bft) SW 225 0 min 0,0 UV-I 15,7 C 16,9 C 3,2 km/h (1 Bft)
31.05.2011 22:35 18,5 C 21,0 C 16,7 C 18,0 C 16,9 C 0,0 C 84 % 94 % 0 % 1014,6 hPa 0,0 l/m 3,4 km/h (1 Bft) S 180 0 min 0,0 UV-I 15,7 C 16,9 C 9,0 km/h (2 Bft)
31.05.2011 22:40 18,3 C 21,0 C 16,6 C 17,8 C 16,9 C 0,0 C 84 % 94 % 0 % 1014,6 hPa 0,0 l/m 3,7 km/h (1 Bft) W 270 0 min 0,0 UV-I 15,5 C 16,9 C 2,9 km/h (1 Bft)
31.05.2011 22:45 18,3 C 21,0 C 16,7 C 17,8 C 16,8 C 0,0 C 83 % 94 % 0 % 1014,6 hPa 0,0 l/m 3,2 km/h (1 Bft) S-SW 202 0 min 0,0 UV-I 15,4 C 16,8 C 6,8 km/h (2 Bft)
31.05.2011 22:50 18,2 C 20,9 C 16,5 C 17,7 C 16,7 C 0,0 C 82 % 93 % 0 % 1014,9 hPa 0,0 l/m 3,4 km/h (1 Bft) SW 225 0 min 0,0 UV-I 15,1 C 16,7 C 4,8 km/h (1 Bft)
31.05.2011 22:55 18,0 C 20,9 C 16,3 C 17,5 C 16,6 C 0,0 C 82 % 93 % 0 % 1014,9 hPa 0,0 l/m 4,0 km/h (1 Bft) S 180 0 min 0,0 UV-I 14,9 C 16,6 C 3,9 km/h (1 Bft)
31.05.2011 23:00 18,0 C 20,9 C 16,1 C 17,5 C 16,4 C 0,0 C 81 % 93 % 0 % 1014,9 hPa 0,0 l/m 4,5 km/h (1 Bft) S 180 0 min 0,0 UV-I 14,7 C 16,4 C 6,8 km/h (2 Bft)
31.05.2011 23:08 17,7 C 20,8 C 15,9 C 17,2 C 16,1 C 0,0 C 81 % 92 % 0 % 1014,9 hPa 0,0 l/m 4,8 km/h (1 Bft) N 0 0 min 0,0 UV-I 14,4 C 16,1 C 4,5 km/h (1 Bft)
31.05.2011 23:15 17,6 C 20,8 C 15,8 C 17,1 C 16,0 C 0,0 C 81 % 92 % 0 % 1014,9 hPa 0,0 l/m 4,2 km/h (1 Bft) S-SW 202 0 min 0,0 UV-I 14,3 C 16,0 C 6,1 km/h (2 Bft)
31.05.2011 23:20 17,5 C 20,8 C 15,6 C 17,0 C 15,9 C 0,0 C 81 % 92 % 0 % 1014,9 hPa 0,0 l/m 2,7 km/h (1 Bft) S-SO 157 0 min 0,0 UV-I 14,2 C 15,9 C 0,0 km/h (0 Bft)
31.05.2011 23:25 17,5 C 20,8 C 15,6 C 16,9 C 15,7 C 0,0 C 81 % 92 % 0 % 1014,9 hPa 0,0 l/m 2,3 km/h (1 Bft) S 180 0 min 0,0 UV-I 14,2 C 15,7 C 4,3 km/h (1 Bft)
31.05.2011 23:30 17,5 C 20,8 C 15,5 C 16,9 C 15,7 C 0,0 C 81 % 92 % 0 % 1015,3 hPa 0,0 l/m 2,4 km/h (1 Bft) S 180 0 min 0,0 UV-I 14,2 C 15,7 C 9,2 km/h (2 Bft)
31.05.2011 23:35 17,3 C 20,8 C 15,5 C 16,7 C 15,6 C 0,0 C 81 % 92 % 0 % 1015,3 hPa 0,0 l/m 2,9 km/h (1 Bft) S-SO 157 0 min 0,0 UV-I 14,0 C 15,6 C 1,9 km/h (1 Bft)
31.05.2011 23:40 17,3 C 20,8 C 15,4 C 16,7 C 15,5 C 0,0 C 81 % 92 % 0 % 1015,3 hPa 0,0 l/m 3,1 km/h (1 Bft) SW 225 0 min 0,0 UV-I 14,0 C 15,5 C 2,9 km/h (1 Bft)
31.05.2011 23:45 17,2 C 20,8 C 15,5 C 16,6 C 15,5 C 0,0 C 81 % 93 % 0 % 1015,3 hPa 0,0 l/m 2,4 km/h (1 Bft) S-SO 157 0 min 0,0 UV-I 13,9 C 15,5 C 0,0 km/h (0 Bft)
31.05.2011 23:50 17,3 C 20,8 C 15,4 C 16,7 C 15,5 C 0,0 C 82 % 93 % 0 % 1015,6 hPa 0,0 l/m 2,3 km/h (1 Bft) W 270 0 min 0,0 UV-I 14,2 C 15,5 C 3,1 km/h (1 Bft)
31.05.2011 23:55 17,2 C 20,8 C 15,4 C 16,6 C 15,5 C 0,0 C 82 % 93 % 0 % 1015,6 hPa 0,0 l/m 2,1 km/h (1 Bft) S 180 0 min 0,0 UV-I 14,1 C 15,5 C 0,0 km/h (0 Bft)
_ Min-Zeit 23:45 07:25 05:45 05:45 05:30 00:00 13:10 13:10 00:00 14:08 - 01:30 - - - 00:00 05:15 05:30 00:00
Minimum _ 17,2 C 20,2 C 15,1 C 16,1 C 13,8 C 0,0 C 43 % 46 % 0 % 1009,3 hPa - 0,0 km/h (0 Bft) - - - 0,0 UV-I 12,2 C 13,8 C 0,0 km/h (0 Bft)
_ Max-Zeit 13:35 15:35 13:25 13:00 13:00 09:20 17:20 18:15 07:15 23:50 15:25 15:00 - - 10:10 12:55 19:50 13:00 14:50
Maximum _ 29,3 C 21,9 C 27,7 C 34,1 C 34,1 C 8,6 C 86 % 95 % 100 % 1015,6 hPa 4,8 l/m 13,7 km/h
SW (3 Bft)
- - 10 min 3,9 UV-I 17,7 C 34,1 C 27,0 km/h
SW (4 Bft)
Durchschnitt _ 21,7 C 20,9 C 19,5 C 23,0 C 22,0 C 1,8 C 67 % 76 % 29 % 1011,5 hPa #11,7 l/m 1,7 km/h (1 Bft) S - #6:35 h 1,3 UV-I 14,8 C 22,0 C 2,4 km/h (1 Bft)
2013 www.wetterstation-wechselburg.de